Simultaneous Nadir Overpasses (SNOs) Predictions

Prediction of SNOs between AURA and NPP Satellite Orbit:

Table of predicted SNOs for the next 14.0 days since TLE Epoch: 7/28/2017
Index Date (AURA) Time (AURA) Lat,Lon (AURA) SZA (AURA ) Date (NPP) Time (NPP) Lat,Lon (NPP) SZA (NPP ) Distance(km) Time Diff (sec)
1 07/30/2017 11:24:46 -79.33, 84.39 105.15 07/30/2017 11:24:32 -79.34, 84.47 105.15 1.87 14
2 07/30/2017 12:14:06 79.55,-106.48 74.54 07/30/2017 12:15:10 79.55,-106.54 74.51 1.41 64
3 08/02/2017 02:51:52 79.16, 31.51 75.76 08/02/2017 02:50:49 79.16, 31.59 75.79 1.64 63
4 08/02/2017 03:41:14 -79.37,-159.50 104.54 08/02/2017 03:41:29 -79.36,-159.58 104.54 1.93 15
5 08/04/2017 19:08:20 79.19, 147.58 76.40 08/04/2017 19:07:46 79.18, 147.50 76.44 1.90 34
6 08/04/2017 19:57:39 -79.51, -42.63 104.08 08/04/2017 19:58:22 -79.52, -42.58 104.12 1.07 43
7 08/07/2017 11:24:45 79.33, -95.61 76.90 08/07/2017 11:24:39 79.34, -95.56 76.89 1.39 6
8 08/07/2017 12:14:07 -79.54, 73.43 103.40 08/07/2017 12:15:19 -79.53, 73.34 103.44 1.90 72
9 08/10/2017 02:51:51 -79.17,-148.38 102.15 08/10/2017 02:50:56 -79.18,-148.28 102.13 2.45 55




NCC Satellite Simultaneous Nadir Overpasses (SNOs) Prediction Service
